Radiation Dose at Monitoring Post of Fukushima Daini Nuclear Power Station
Date,Time,MP-1(microSv/h),MP-2(microSv/h),MP-3(microSv/h),MP-4(microSv/h),MP-5(microSv/h),MP-6(microSv/h),MP-7(microSv/h),Wind Direction,Wind Velocity(m/s),Rain
2015/01/22,00:00,-,0.374,0.611,0.557,0.553,0.258,0.230,north-northwest,1.6,Yes
2015/01/22,00:10,-,0.374,0.609,0.554,0.553,0.257,0.229,north-northwest,2.2,Yes
2015/01/22,00:20,-,0.374,0.609,0.557,0.552,0.258,0.230,north-northwest,3.2,Yes
2015/01/22,00:30,-,0.375,0.609,0.557,0.553,0.259,0.229,northwest,3.7,Yes
2015/01/22,00:40,-,0.373,0.607,0.555,0.551,0.259,0.230,north-northwest,3.9,Yes
2015/01/22,00:50,-,0.372,0.608,0.554,0.550,0.259,0.231,northwest,4.7,Yes
2015/01/22,01:00,-,0.374,0.604,0.553,0.550,0.257,0.230,north,4.4,Yes
2015/01/22,01:10,-,0.375,0.606,0.552,0.548,0.254,0.229,north-northwest,4.3,Yes
2015/01/22,01:20,-,0.373,0.604,0.552,0.548,0.256,0.228,north-northwest,4.2,Yes
2015/01/22,01:30,-,0.372,0.604,0.552,0.549,0.255,0.228,north-northwest,5.2,Yes
2015/01/22,01:40,-,0.371,0.603,0.551,0.548,0.255,0.227,north-northwest,4.9,Yes
2015/01/22,01:50,-,0.372,0.603,0.548,0.549,0.255,0.226,north-northwest,4.9,Yes
2015/01/22,02:00,-,0.372,0.603,0.551,0.549,0.254,0.227,north-northwest,7.5,Yes
2015/01/22,02:10,-,0.373,0.602,0.549,0.549,0.255,0.225,north-northwest,5.7,Yes
2015/01/22,02:20,-,0.372,0.602,0.549,0.545,0.255,0.227,north-northwest,5.9,Yes
2015/01/22,02:30,-,0.370,0.601,0.549,0.546,0.254,0.224,north-northwest,5.3,Yes
2015/01/22,02:40,-,0.372,0.603,0.548,0.546,0.254,0.224,north-northwest,5.9,Yes
2015/01/22,02:50,-,0.371,0.603,0.548,0.547,0.255,0.226,north-northwest,5.6,Yes
2015/01/22,03:00,-,0.373,0.604,0.549,0.549,0.255,0.227,north-northwest,6.3,Yes
2015/01/22,03:10,-,0.373,0.601,0.548,0.548,0.255,0.226,north-northwest,6.1,Yes
2015/01/22,03:20,-,0.372,0.603,0.549,0.548,0.254,0.228,north-northwest,6.2,Yes
2015/01/22,03:30,-,0.373,0.605,0.548,0.548,0.257,0.228,north-northwest,6.2,Yes
2015/01/22,03:40,-,0.373,0.605,0.549,0.548,0.257,0.229,northwest,6.3,Yes
2015/01/22,03:50,-,0.372,0.605,0.548,0.549,0.254,0.227,north-northwest,6.8,Yes
2015/01/22,04:00,-,0.372,0.603,0.550,0.548,0.254,0.227,north-northwest,6.5,Yes
2015/01/22,04:10,-,0.370,0.604,0.547,0.547,0.254,0.228,north-northwest,6.9,No
2015/01/22,04:20,-,0.372,0.604,0.548,0.547,0.254,0.225,north-northwest,6.5,No
2015/01/22,04:30,-,0.371,0.605,0.548,0.548,0.251,0.226,north-northwest,6.7,No
2015/01/22,04:40,-,0.370,0.603,0.547,0.547,0.252,0.224,north-northwest,6.7,No
2015/01/22,04:50,-,0.369,0.606,0.549,0.547,0.252,0.224,north-northwest,5.8,No
2015/01/22,05:00,-,0.369,0.605,0.547,0.548,0.251,0.223,north-northwest,6.2,Yes
2015/01/22,05:10,-,0.369,0.606,0.548,0.547,0.252,0.225,north-northwest,6.4,Yes
2015/01/22,05:20,-,0.369,0.608,0.547,0.549,0.252,0.223,north-northwest,6.6,Yes
2015/01/22,05:30,-,0.368,0.606,0.547,0.550,0.253,0.225,north-northwest,6.2,No
2015/01/22,05:40,-,0.368,0.606,0.547,0.549,0.251,0.225,north-northwest,6.5,No
2015/01/22,05:50,-,0.370,0.606,0.550,0.546,0.251,0.223,north-northwest,6.4,No
2015/01/22,06:00,-,0.370,0.607,0.549,0.549,0.251,0.225,north-northwest,7.8,No
2015/01/22,06:10,-,0.370,0.608,0.550,0.549,0.251,0.224,north-northwest,7.6,No
2015/01/22,06:20,-,0.371,0.606,0.549,0.549,0.252,0.224,north-northwest,7.7,No
2015/01/22,06:30,-,0.369,0.608,0.551,0.550,0.251,0.225,north-northwest,7.5,No
2015/01/22,06:40,-,0.369,0.606,0.550,0.549,0.251,0.223,north-northwest,7.8,No
2015/01/22,06:50,-,0.369,0.606,0.550,0.548,0.250,0.225,north-northwest,8.2,No
2015/01/22,07:00,-,0.369,0.607,0.549,0.548,0.252,0.223,north-northwest,8.6,No
2015/01/22,07:10,-,0.368,0.607,0.549,0.549,0.251,0.223,north-northwest,8.7,No
2015/01/22,07:20,-,0.370,0.609,0.551,0.550,0.251,0.223,north-northwest,8.3,No
2015/01/22,07:30,-,0.370,0.608,0.550,0.550,0.251,0.224,north-northwest,7.5,No
2015/01/22,07:40,-,0.369,0.608,0.549,0.551,0.250,0.223,north-northwest,7.2,No
2015/01/22,07:50,-,0.370,0.608,0.550,0.551,0.251,0.223,north-northwest,6.9,No
2015/01/22,08:00,-,0.369,0.608,0.551,0.550,0.251,0.222,north-northwest,6.6,No
2015/01/22,08:10,-,0.369,0.608,0.551,0.549,0.251,0.223,north-northwest,7.3,No
2015/01/22,08:20,-,0.368,0.608,0.552,0.551,0.250,0.223,northwest,7.5,No
2015/01/22,08:30,-,0.369,0.607,0.552,0.551,0.252,0.223,northwest,7.4,No
2015/01/22,08:40,-,0.369,0.609,0.553,0.554,0.252,0.224,north-northwest,8.1,No
2015/01/22,08:50,-,0.370,0.609,0.550,0.552,0.251,0.222,northwest,7.3,No
2015/01/22,09:00,-,0.370,0.610,0.551,0.552,0.251,0.223,north-northwest,7.5,No
2015/01/22,09:10,-,0.369,0.609,0.552,0.552,0.252,0.223,north-northwest,6.9,No
2015/01/22,09:20,-,0.369,0.608,0.552,0.554,0.251,0.224,north-northwest,6.7,No
2015/01/22,09:30,-,0.370,0.610,0.553,0.552,0.251,0.222,north-northwest,7.0,No
2015/01/22,09:40,-,0.369,0.608,0.553,0.552,0.250,0.224,north-northwest,6.8,No
2015/01/22,09:50,-,0.370,0.610,0.552,0.553,0.251,0.224,north-northwest,7.0,No
2015/01/22,10:00,-,0.370,0.612,0.553,0.553,0.251,0.223,north-northwest,6.5,No
2015/01/22,10:10,-,0.371,0.610,0.551,0.551,0.251,0.224,north-northwest,6.0,No
2015/01/22,10:20,-,0.368,0.610,0.551,0.553,0.252,0.223,north-northwest,5.2,No
2015/01/22,10:30,-,0.369,0.609,0.553,0.551,0.250,0.224,north-northwest,6.1,No
2015/01/22,10:40,-,0.368,0.610,0.552,0.553,0.251,0.222,north-northwest,6.2,No
2015/01/22,10:50,-,0.369,0.611,0.552,0.553,0.252,0.225,north-northwest,7.4,No
2015/01/22,11:00,-,0.370,0.609,0.554,0.553,0.251,0.222,north-northwest,5.9,No
2015/01/22,11:10,-,0.369,0.611,0.555,0.553,0.250,0.223,north-northwest,5.4,No
2015/01/22,11:20,-,0.370,0.610,0.553,0.552,0.250,0.222,north-northwest,6.2,No
2015/01/22,11:30,-,0.370,0.610,0.552,0.553,0.251,0.224,north-northwest,6.8,No
2015/01/22,11:40,-,0.370,0.611,0.553,0.553,0.251,0.223,north-northwest,6.4,No
2015/01/22,11:50,-,0.369,0.612,0.553,0.553,0.251,0.223,northwest,5.1,No
2015/01/22,12:00,-,0.368,0.610,0.552,0.553,0.251,0.222,north-northwest,6.7,No
2015/01/22,12:10,-,0.371,0.611,0.555,0.553,0.253,0.222,north-northwest,7.4,No
2015/01/22,12:20,-,0.370,0.612,0.553,0.551,0.251,0.225,north-northwest,6.8,No
2015/01/22,12:30,-,0.371,0.611,0.554,0.554,0.251,0.223,north-northwest,6.8,Yes
2015/01/22,12:40,-,0.370,0.610,0.553,0.554,0.251,0.223,north-northwest,7.1,No
2015/01/22,12:50,-,0.370,0.611,0.555,0.554,0.251,0.224,north-northwest,7.0,No
2015/01/22,13:00,-,0.371,0.611,0.554,0.554,0.252,0.225,north-northwest,6.6,No
2015/01/22,13:10,-,0.371,0.611,0.555,0.553,0.251,0.223,north-northwest,7.1,No
2015/01/22,13:20,-,0.371,0.612,0.554,0.554,0.252,0.225,north-northwest,7.3,Yes
2015/01/22,13:30,-,0.372,0.613,0.555,0.554,0.252,0.223,north,6.7,No
2015/01/22,13:40,-,0.371,0.612,0.555,0.554,0.252,0.225,north-northwest,6.2,Yes
2015/01/22,13:50,-,0.372,0.614,0.555,0.554,0.253,0.224,north,6.5,Yes
2015/01/22,14:00,-,0.371,0.613,0.557,0.555,0.252,0.225,north,5.9,Yes
2015/01/22,14:10,-,0.372,0.614,0.555,0.555,0.252,0.225,north-northwest,5.0,Yes
2015/01/22,14:20,-,0.371,0.611,0.556,0.553,0.253,0.224,north,5.4,Yes
2015/01/22,14:30,-,0.371,0.614,0.556,0.555,0.253,0.225,north,6.2,Yes
2015/01/22,14:40,-,0.372,0.614,0.556,0.557,0.254,0.226,north-northwest,5.6,Yes
2015/01/22,14:50,-,0.375,0.615,0.557,0.557,0.254,0.226,north-northwest,4.9,Yes
2015/01/22,15:00,-,0.375,0.614,0.557,0.558,0.256,0.229,north,8.2,Yes
2015/01/22,15:10,-,0.374,0.613,0.558,0.557,0.256,0.227,north-northwest,6.0,Yes
2015/01/22,15:20,-,0.376,0.612,0.556,0.557,0.255,0.229,north-northwest,5.6,Yes
2015/01/22,15:30,-,0.375,0.613,0.556,0.556,0.256,0.229,north-northwest,5.7,Yes
2015/01/22,15:40,-,0.376,0.613,0.553,0.556,0.256,0.227,north,6.7,Yes
2015/01/22,15:50,-,0.375,0.610,0.553,0.555,0.256,0.227,north-northeast,3.9,Yes
2015/01/22,16:00,-,0.374,0.609,0.552,0.557,0.257,0.228,northwest,5.2,Yes
2015/01/22,16:10,-,0.373,0.610,0.553,0.556,0.258,0.227,north-northwest,7.1,Yes
2015/01/22,16:20,-,0.374,0.609,0.553,0.555,0.257,0.227,north-northwest,5.3,Yes
2015/01/22,16:30,-,0.375,0.609,0.552,0.556,0.257,0.226,north,5.7,Yes
2015/01/22,16:40,-,0.373,0.609,0.551,0.559,0.255,0.227,north-northwest,5.8,Yes
2015/01/22,16:50,-,0.373,0.607,0.551,0.556,0.255,0.226,north-northwest,5.6,Yes
2015/01/22,17:00,-,0.372,0.607,0.550,0.554,0.255,0.226,north-northwest,5.7,Yes
2015/01/22,17:10,-,0.371,0.607,0.551,0.555,0.255,0.226,north,5.9,Yes
2015/01/22,17:20,-,0.374,0.610,0.552,0.554,0.253,0.225,north-northwest,6.7,Yes
2015/01/22,17:30,-,0.373,0.609,0.553,0.553,0.255,0.225,north-northwest,7.0,Yes
2015/01/22,17:40,-,0.374,0.608,0.553,0.555,0.255,0.225,north-northwest,7.5,Yes
2015/01/22,17:50,-,0.372,0.608,0.552,0.554,0.255,0.225,north-northwest,7.0,Yes
2015/01/22,18:00,-,0.373,0.608,0.553,0.556,0.256,0.225,north-northwest,7.0,Yes
2015/01/22,18:10,-,0.372,0.610,0.551,0.554,0.254,0.224,north-northwest,6.8,Yes
2015/01/22,18:20,-,0.372,0.607,0.552,0.553,0.253,0.224,north,7.0,Yes
2015/01/22,18:30,-,0.371,0.606,0.550,0.554,0.253,0.223,north-northwest,6.6,Yes
2015/01/22,18:40,-,0.370,0.606,0.551,0.553,0.252,0.224,north,7.5,Yes
2015/01/22,18:50,-,0.370,0.605,0.551,0.552,0.252,0.222,north-northwest,6.8,Yes
2015/01/22,19:00,-,0.370,0.608,0.552,0.554,0.252,0.224,north-northwest,7.0,No
2015/01/22,19:10,-,0.370,0.606,0.551,0.553,0.252,0.223,north-northwest,6.3,No
2015/01/22,19:20,-,0.369,0.607,0.551,0.552,0.252,0.223,north-northwest,6.8,No
2015/01/22,19:30,-,0.370,0.607,0.550,0.552,0.251,0.223,north-northwest,7.5,No
2015/01/22,19:40,-,0.369,0.608,0.550,0.552,0.252,0.223,north-northwest,8.7,Yes
2015/01/22,19:50,-,0.371,0.607,0.551,0.554,0.252,0.223,north-northwest,9.2,No
2015/01/22,20:00,-,0.370,0.607,0.552,0.553,0.250,0.222,north-northwest,8.2,Yes
2015/01/22,20:10,-,0.370,0.607,0.551,0.553,0.252,0.222,north-northwest,7.5,Yes
2015/01/22,20:20,-,0.369,0.609,0.552,0.552,0.252,0.223,north-northwest,7.7,Yes
2015/01/22,20:30,-,0.370,0.608,0.553,0.552,0.251,0.224,north-northwest,8.4,Yes
2015/01/22,20:40,-,0.370,0.608,0.551,0.552,0.252,0.224,north-northwest,8.9,Yes
2015/01/22,20:50,-,0.371,0.609,0.552,0.554,0.253,0.224,north-northwest,8.1,Yes
2015/01/22,21:00,-,0.371,0.609,0.553,0.553,0.252,0.224,north-northwest,8.3,No
2015/01/22,21:10,-,0.370,0.609,0.554,0.552,0.252,0.223,north-northwest,7.3,No
2015/01/22,21:20,-,0.370,0.608,0.553,0.555,0.253,0.223,north-northwest,8.2,No
2015/01/22,21:30,-,0.370,0.607,0.552,0.552,0.251,0.223,north-northwest,9.0,No
2015/01/22,21:40,-,0.370,0.608,0.552,0.552,0.250,0.222,north-northwest,8.7,No
2015/01/22,21:50,-,0.370,0.609,0.553,0.552,0.252,0.222,north-northwest,8.4,No
2015/01/22,22:00,-,0.370,0.607,0.552,0.552,0.251,0.223,north-northwest,8.8,No
2015/01/22,22:10,-,0.368,0.609,0.552,0.553,0.251,0.223,north-northwest,8.4,No
2015/01/22,22:20,-,0.369,0.610,0.550,0.553,0.252,0.222,north-northwest,8.7,No
2015/01/22,22:30,-,0.372,0.608,0.552,0.553,0.250,0.223,north-northwest,8.7,No
2015/01/22,22:40,-,0.370,0.608,0.550,0.553,0.251,0.223,north-northwest,9.5,No
2015/01/22,22:50,-,0.370,0.608,0.552,0.552,0.252,0.222,north-northwest,9.5,No
2015/01/22,23:00,-,0.369,0.607,0.552,0.553,0.251,0.223,north-northwest,9.1,No
2015/01/22,23:10,-,0.369,0.610,0.551,0.553,0.252,0.223,north-northwest,9.6,No
2015/01/22,23:20,-,0.369,0.608,0.552,0.554,0.252,0.222,north-northwest,9.2,No
2015/01/22,23:30,-,0.369,0.609,0.552,0.554,0.252,0.223,north-northwest,9.8,No
2015/01/22,23:40,-,0.370,0.611,0.552,0.551,0.250,0.223,north-northwest,9.6,No
2015/01/22,23:50,-,0.370,0.609,0.552,0.553,0.251,0.222,north-northwest,9.6,No
